Location: Prairie Dale
(45.6972°N, 104.5033°W)
Time: 20:24:52
(UTC+00:00)

LO-87 - Visible Passes

Search period start: 26 June 2022 00:00
Search period end: 06 July 2022 00:00
Orbit: 454 x 468 km, 97.4° (Epoch: 26 June)

Date Brightness Start Highest point End Pass type
(mag) Time Alt. Az. Time Alt. Az. Time Alt. Az.
26 Jun ? 05:45:01 23° E 05:45:40 24° ENE 05:48:33 10° NNE visible
26 Jun ? 07:18:54 21° W 07:18:54 21° W 07:21:20 10° NW visible
27 Jun ? 05:13:16 10° E 05:14:26 11° ENE 05:15:36 10° NE visible
27 Jun ? 06:47:04 52° W 06:47:04 52° W 06:50:21 10° NNW visible
28 Jun ? 06:15:13 55° E 06:15:26 57° ENE 06:18:50 10° N visible
29 Jun ? 05:43:21 22° E 05:44:01 23° ENE 05:46:50 10° NNE visible
29 Jun ? 07:17:13 22° W 07:17:13 22° W 07:19:42 10° NW visible
30 Jun ? 05:11:47 10° ENE 05:12:43 11° ENE 05:13:41 10° NE visible
30 Jun ? 06:45:20 56° W 06:45:20 56° W 06:48:39 10° NNW visible
01 Jul ? 06:13:26 52° E 06:13:38 53° ENE 06:17:01 10° N visible
02 Jul ? 05:41:31 21° E 05:42:11 22° ENE 05:44:56 10° NNE visible
02 Jul ? 07:15:24 23° W 07:15:24 23° W 07:17:56 10° NW visible
03 Jul ? 05:10:15 10° ENE 05:10:51 10° ENE 05:11:26 10° NE visible
03 Jul ? 06:43:27 59° W 06:43:27 59° W 06:46:45 10° NNW visible
04 Jul ? 06:11:30 49° E 06:11:41 50° ENE 06:15:03 10° N visible
04 Jul ? 07:45:22 11° W 07:45:22 11° W 07:45:52 10° WNW visible
05 Jul ? 05:39:32 20° E 05:40:10 21° ENE 05:42:52 10° NNE visible
05 Jul ? 07:13:24 25° W 07:13:24 25° W 07:15:58 10° NW visible
